Le nostre stazioni meteo in Italia

Pubblicità
Il mio iltempo24.it
Perugia, Italia (16181): Temperatura & dewpoint: 15.04.2019 09:00:00 - 21.04.2019 09:00:00 (CEST)Perugia, Italia (16181): velocità del vento: 15.04.2019 09:00:00 - 21.04.2019 09:00:00 (CEST)Perugia, Italia (16181): direzione del vento: 15.04.2019 09:00:00 - 21.04.2019 09:00:00 (CEST)Perugia, Italia (16181): visibility: 15.04.2019 09:00:00 - 21.04.2019 09:00:00 (CEST)
Data & Tempo tt [°C] td [°C] ff [km/h] ff [kn] dd vv [km]
21.04.2019 09:00:00 - - - - - -
21.04.2019 08:00:00 9,0 6,0 4 2 - 10
21.04.2019 07:00:00 8,0 5,0 2 1 - 10
21.04.2019 06:00:00 8,0 4,0 4 2 - 10
21.04.2019 05:00:00 9,0 3,0 5 3 - 10
21.04.2019 04:00:00 10,0 3,0 18 10 N 10
21.04.2019 03:00:00 10,0 4,0 16 9 N 10
21.04.2019 02:00:00 10,0 4,0 11 6 N 10
21.04.2019 01:00:00 11,0 4,0 11 6 NNO 10
21.04.2019 00:00:00 12,0 4,0 9 5 N 10
20.04.2019 23:00:00 14,0 4,0 13 7 N 10
20.04.2019 22:00:00 15,0 4,0 16 9 N 10
20.04.2019 21:00:00 17,0 4,0 15 8 NNE 10
20.04.2019 20:00:00 18,0 4,0 22 12 NE 10
20.04.2019 19:00:00 20,0 5,0 26 14 NE 10
20.04.2019 18:00:00 21,0 6,0 22 12 NE 10
20.04.2019 17:00:00 22,0 7,0 24 13 NNE 10
20.04.2019 16:00:00 22,0 7,0 24 13 NNE 10
20.04.2019 15:00:00 22,0 6,0 15 8 NNE 10
20.04.2019 14:00:00 22,0 6,0 21 11 NNE 10
20.04.2019 13:00:00 21,0 4,0 5 3 S 10
20.04.2019 12:00:00 20,0 6,0 5 3 NNO 10
20.04.2019 11:00:00 17,0 7,0 4 2 - 10
20.04.2019 10:00:00 14,0 7,0 4 2 - 10
20.04.2019 09:00:00 10,0 6,0 4 2 - 10
20.04.2019 08:00:00 8,0 4,0 4 2 - 10
20.04.2019 07:00:00 7,0 3,0 8 4 NNO 10
20.04.2019 06:00:00 5,0 3,0 2 1 - 10
20.04.2019 05:00:00 6,0 3,0 8 4 N 10
20.04.2019 04:00:00 7,0 4,0 11 6 NNO 10
20.04.2019 03:00:00 8,0 4,0 13 7 NNO 10
20.04.2019 02:00:00 9,0 4,0 16 9 N 10
20.04.2019 01:00:00 9,0 5,0 13 7 N 10
20.04.2019 00:00:00 10,0 6,0 15 8 N 10
19.04.2019 23:00:00 10,0 6,0 13 7 N 10
19.04.2019 22:00:00 13,0 5,0 16 9 NNE 10
19.04.2019 21:00:00 14,0 5,0 16 9 N 10
19.04.2019 20:00:00 15,0 6,0 15 8 N 10
19.04.2019 19:00:00 18,0 7,0 18 10 NNE 10
19.04.2019 18:00:00 19,0 6,0 26 14 NNE 10
19.04.2019 17:00:00 19,0 6,0 24 13 NNE 10
19.04.2019 16:00:00 20,0 6,0 24 13 NNE 10
19.04.2019 15:00:00 20,0 7,0 22 12 NNE 10
19.04.2019 14:00:00 20,0 5,0 24 13 NNE 10
19.04.2019 13:00:00 19,0 5,0 24 13 NNE 10
19.04.2019 12:00:00 19,0 2,0 18 10 NE 10
19.04.2019 11:00:00 19,0 5,0 5 3 - 10
19.04.2019 10:00:00 16,0 7,0 9 5 NNO 10
19.04.2019 09:00:00 12,0 6,0 9 5 NNO 10
19.04.2019 08:00:00 9,0 5,0 16 9 N 10
19.04.2019 07:00:00 8,0 4,0 22 12 N 10
19.04.2019 06:00:00 8,0 3,0 21 11 N 10
19.04.2019 05:00:00 8,0 3,0 15 8 N 10
19.04.2019 04:00:00 9,0 3,0 18 10 N 10
19.04.2019 03:00:00 9,0 3,0 16 9 N 10
19.04.2019 02:00:00 10,0 3,0 18 10 N 10
19.04.2019 01:00:00 12,0 3,0 16 9 N 10
19.04.2019 00:00:00 13,0 3,0 15 8 NNE 10
18.04.2019 23:00:00 13,0 3,0 11 6 NE 10
18.04.2019 22:00:00 15,0 3,0 18 10 ENE 10
18.04.2019 21:00:00 15,0 2,0 21 11 NE 10
18.04.2019 20:00:00 16,0 2,0 18 10 NE 10
18.04.2019 19:00:00 18,0 2,0 21 11 NE 10
18.04.2019 18:00:00 - - - - - -
18.04.2019 17:00:00 19,0 2,0 29 16 NE 10
18.04.2019 16:00:00 20,0 2,0 28 15 NE 10
18.04.2019 15:00:00 19,0 3,0 31 17 NE 10
18.04.2019 14:00:00 19,0 4,0 26 14 NNE 10
18.04.2019 13:00:00 19,0 3,0 28 15 NE 10
18.04.2019 12:00:00 19,0 3,0 18 10 NE 10
18.04.2019 11:00:00 17,0 3,0 24 13 NNE 10
18.04.2019 10:00:00 13,0 6,0 9 5 ESE 10
18.04.2019 09:00:00 9,0 4,0 4 2 - 10
18.04.2019 08:00:00 7,0 3,0 2 1 - 10
18.04.2019 07:00:00 5,0 2,0 4 2 E 10
18.04.2019 06:00:00 6,0 2,0 8 4 ONO 10
18.04.2019 05:00:00 6,0 3,0 4 2 - 10
18.04.2019 04:00:00 6,0 2,0 15 8 N 10
18.04.2019 03:00:00 7,0 3,0 18 10 NNO 10
18.04.2019 02:00:00 7,0 3,0 13 7 NNO 10
18.04.2019 01:00:00 7,0 3,0 18 10 N 10
18.04.2019 00:00:00 10,0 3,0 18 10 N 10
17.04.2019 23:00:00 11,0 3,0 15 8 NNO 10
17.04.2019 22:00:00 12,0 4,0 16 9 N 10
17.04.2019 21:00:00 12,0 5,0 11 6 NNE 10
17.04.2019 20:00:00 14,0 5,0 13 7 NNE 10
17.04.2019 19:00:00 17,0 5,0 16 9 NNE 10
17.04.2019 18:00:00 19,0 6,0 13 7 N 10
17.04.2019 17:00:00 20,0 7,0 13 7 N 10
17.04.2019 16:00:00 20,0 4,0 9 5 N 10
17.04.2019 15:00:00 20,0 6,0 8 4 - 10
17.04.2019 14:00:00 19,0 5,0 11 6 N 10
17.04.2019 13:00:00 18,0 7,0 11 6 NNO 9
17.04.2019 12:00:00 16,0 8,0 8 4 OSO 8
17.04.2019 11:00:00 14,0 9,0 5 3 ONO 8
17.04.2019 10:00:00 13,0 9,0 4 2 - 8
17.04.2019 09:00:00 10,0 8,0 4 2 - 8
17.04.2019 08:00:00 8,0 8,0 4 2 N 7
17.04.2019 07:00:00 8,0 7,0 5 3 NNO 6
17.04.2019 06:00:00 8,0 7,0 5 3 NNO 7
17.04.2019 05:00:00 9,0 8,0 8 4 NNO 9
17.04.2019 04:00:00 9,0 8,0 4 2 - 9
17.04.2019 03:00:00 8,0 7,0 8 4 N 8
17.04.2019 02:00:00 9,0 7,0 4 2 NO 9
17.04.2019 01:00:00 10,0 8,0 8 4 OSO 10
17.04.2019 00:00:00 10,0 9,0 8 4 NNE 10
16.04.2019 23:00:00 12,0 9,0 4 2 O 10
16.04.2019 22:00:00 13,0 9,0 4 2 - 10
16.04.2019 21:00:00 14,0 8,0 4 2 - 10
16.04.2019 20:00:00 13,0 8,0 4 2 - 10
16.04.2019 19:00:00 15,0 8,0 18 10 OSO 10
16.04.2019 18:00:00 16,0 8,0 28 15 SSO 10
16.04.2019 17:00:00 19,0 5,0 9 5 O 10
16.04.2019 16:00:00 19,0 5,0 5 3 - 10
16.04.2019 15:00:00 19,0 6,0 5 3 - 10
16.04.2019 14:00:00 17,0 8,0 4 2 - 10
16.04.2019 13:00:00 17,0 6,0 5 3 O 10
16.04.2019 12:00:00 16,0 5,0 2 1 - 10
16.04.2019 11:00:00 13,0 5,0 4 2 - 10
16.04.2019 10:00:00 12,0 5,0 4 2 - 10
16.04.2019 09:00:00 9,0 5,0 4 2 - 10
16.04.2019 08:00:00 5,0 4,0 8 4 N 10
16.04.2019 07:00:00 5,0 3,0 9 5 N 10
16.04.2019 06:00:00 4,0 3,0 8 4 NNE 10
16.04.2019 05:00:00 5,0 3,0 5 3 NNE 10
16.04.2019 04:00:00 5,0 3,0 9 5 N 10
16.04.2019 03:00:00 6,0 3,0 15 8 NNO 10
16.04.2019 02:00:00 6,0 3,0 15 8 N 10
16.04.2019 01:00:00 7,0 4,0 13 7 N 10
16.04.2019 00:00:00 8,0 4,0 22 12 N 10
15.04.2019 23:00:00 9,0 4,0 16 9 N 10
15.04.2019 22:00:00 10,0 4,0 11 6 NNO 10
15.04.2019 21:00:00 9,0 5,0 13 7 N 10
15.04.2019 20:00:00 13,0 5,0 15 8 NNE 10
15.04.2019 19:00:00 14,0 6,0 18 10 NNE 10
15.04.2019 18:00:00 14,0 6,0 22 12 NNE 10
15.04.2019 17:00:00 15,0 6,0 22 12 NNE 10
15.04.2019 16:00:00 15,0 6,0 22 12 NNE 10
15.04.2019 15:00:00 14,0 6,0 24 13 NNE 10
15.04.2019 14:00:00 14,0 7,0 24 13 NNE 10
15.04.2019 13:00:00 12,0 6,0 18 10 NNE 10
15.04.2019 12:00:00 13,0 7,0 26 14 NNE 10
15.04.2019 11:00:00 11,0 6,0 16 9 NE 10
15.04.2019 10:00:00 11,0 7,0 15 8 NNO 10
15.04.2019 09:00:00 11,0 7,0 16 9 N 10

tt = Temperatura
td = dewpoint
ff = velocità del vento
dd = direzione del vento
vv = visibility

Stazioni seguenti

WeatherPro
AMSI
MeteoEarth